Ukiah, CA

12:08 PM PDT on October 01, 2016 (GMT -0700)
Ukiah Municipal

Weather History for KUKI - June, 2013

Change the Weather History Date:

Saturday, June 15, 2013

  Actual Average Record
Temperature  
Mean Temperature 70 °F 67 °F  
Max Temperature 88 °F 83 °F 113 °F (1961)
Min Temperature 51 °F 52 °F 38 °F (1919)
Degree Days  
Heating Degree Days 0 1  
Month to date heating degree days 23  
Since 1 June heating degree days 23  
Since 1 July heating degree days 3109  
Cooling Degree Days 4 3  
Month to date cooling degree days 35  
Year to date cooling degree days 87  
Since 1 June cooling degree days 35  
Growing Degree Days 20 (Base 50)    
Moisture  
Dew Point 42 °F    
Average Humidity 46    
Maximum Humidity 77    
Minimum Humidity 14    
Precipitation  
Precipitation 0.00 in 0.01 in 0.89 in (1929)
Month to date precipitation 0.01 0.22  
Year to date precipitation 5.28 23.26  
Since 1 July precipitation 27.98  
Snow  
Snow 0.00 in - - ()
Month to date snowfall 0.0  
Since 1 June snowfall 0.0  
Since 1 July snowfall 0.0  
Snow Depth -    
Sea Level Pressure  
Sea Level Pressure 29.88 in    
Wind  
Wind Speed 3 mph (NNW)    
Max Wind Speed 15 mph    
Max Gust Speed 22 mph    
Visibility 10 miles    
Events      
T = Trace of Precipitation, MM = Missing Value Source: NWS Daily Summary

Daily Weather History Graph

Daily Weather History Graph

Search for Another Location

Airport or City:

Trip Planner

Search our weather history database for the weather conditions in past years. The results will help you decide how hot, cold, wet, or windy it might be!

Date:

Astronomy

Jun. 15, 2013 Rise Set
Actual Time 5:46 AM PDT 8:40 PM PDT
Civil Twilight 5:14 AM PDT 9:12 PM PDT
Nautical Twilight 4:33 AM PDT 9:53 PM PDT
Astronomical Twilight 3:46 AM PDT 10:40 PM PDT
Moon 12:23 PM PDT (6/15) 12:21 AM PDT (6/15)
Length of Visible Light 15h 58m
Length of Day
14h 54m
Waxing Crescent, 40% of the Moon is Illuminated
Jun 15
Waxing Crescent
Jun 16
First Quarter
Jun 23
Full
Jun 29
Last Quarter
Jul 8
New

Hourly Weather History & Observations

Time (PDT) Temp. Dew Point Humidity Pressure Visibility Wind Dir Wind Speed Gust Speed Precip Events Conditions
12:56 AM 57.9 °F 44.1 °F 60% 29.84 in 10.0 mi Calm Calm - N/A   Clear
1:56 AM 57.0 °F 44.1 °F 62% 29.83 in 10.0 mi Calm Calm - N/A   Clear
2:56 AM 54.0 °F 44.1 °F 69% 29.83 in 10.0 mi Calm Calm - N/A   Clear
3:56 AM 52.0 °F 44.1 °F 74% 29.84 in 10.0 mi Calm Calm - N/A   Clear
4:56 AM 52.0 °F 44.1 °F 74% 29.84 in 10.0 mi Calm Calm - N/A   Clear
5:56 AM 51.1 °F 44.1 °F 77% 29.85 in 10.0 mi Calm Calm - N/A   Clear
6:56 AM 55.9 °F 45.0 °F 67% 29.86 in 10.0 mi Calm Calm - N/A   Clear
7:56 AM 62.1 °F 46.0 °F 56% 29.86 in 10.0 mi Calm Calm - N/A   Clear
8:56 AM 66.9 °F 48.0 °F 51% 29.87 in 10.0 mi Calm Calm - N/A   Clear
9:56 AM 72.0 °F 46.9 °F 41% 29.87 in 10.0 mi Calm Calm - N/A   Clear
10:56 AM 78.1 °F 46.9 °F 33% 29.87 in 10.0 mi Calm Calm - N/A   Clear
11:56 AM 82.0 °F 44.1 °F 26% 29.86 in 10.0 mi NNW 5.8 mph - N/A   Clear
12:56 PM 86.0 °F 34.0 °F 16% 29.87 in 10.0 mi NNW 10.4 mph 18.4 mph N/A   Clear
1:56 PM 88.0 °F 32.0 °F 14% 29.87 in 10.0 mi NW 10.4 mph 20.7 mph N/A   Clear
2:56 PM 87.1 °F 36.0 °F 16% 29.86 in 10.0 mi WNW 9.2 mph 17.3 mph N/A   Clear
3:56 PM 84.9 °F 39.0 °F 20% 29.87 in 10.0 mi West 8.1 mph - N/A   Clear
4:56 PM 84.0 °F 39.0 °F 20% 29.88 in 10.0 mi North 10.4 mph 17.3 mph N/A   Clear
5:56 PM 80.1 °F 39.0 °F 23% 29.91 in 10.0 mi North 11.5 mph 19.6 mph N/A   Clear
6:56 PM 77.0 °F 39.0 °F 25% 29.92 in 10.0 mi North 10.4 mph - N/A   Clear
7:56 PM 73.0 °F 39.0 °F 29% 29.94 in 10.0 mi North 9.2 mph - N/A   Clear
8:56 PM 72.0 °F 37.9 °F 29% 29.94 in 10.0 mi NW 12.7 mph - N/A   Clear
9:56 PM 66.0 °F 42.1 °F 42% 29.96 in 10.0 mi Calm Calm - N/A   Clear
10:56 PM 61.0 °F 39.9 °F 46% 29.98 in 10.0 mi Calm Calm - N/A   Clear
11:56 PM 61.0 °F 41.0 °F 48% 29.98 in 10.0 mi Calm Calm - N/A   Clear